Location: Newark
(48.1500°N, 2.9667°W)
Time: 09:02:26
(UTC+00:00)

SR - Visible Passes

Search period start: 25 January 2020 00:00
Search period end: 04 February 2020 00:00
Orbit: 574 x 882 km, 66.7° (Epoch: 24 January)

Date Brightness Start Highest point End Pass type
(mag) Time Alt. Az. Time Alt. Az. Time Alt. Az.
25 Jan ? 04:26:34 15° N 04:27:40 16° NNE 04:30:59 10° ENE visible
25 Jan ? 06:05:59 10° NNW 06:11:23 42° NE 06:16:22 10° ESE visible
26 Jan ? 03:38:19 12° NNE 03:38:19 12° NNE 03:39:43 10° NE visible
26 Jan ? 05:17:44 16° NNW 05:21:18 28° NE 05:25:52 10° E visible
26 Jan ? 06:58:23 10° NW 07:04:01 74° WSW 07:09:08 10° SSE visible
27 Jan ? 04:29:32 18° N 04:31:02 20° NNE 04:34:59 10° ENE visible
27 Jan ? 06:08:57 11° NNW 06:14:18 65° NE 06:19:27 10° SE visible
28 Jan ? 03:41:24 15° NNE 03:41:24 15° NNE 03:43:50 10° NE visible
28 Jan ? 05:20:49 19° NNW 05:24:23 40° NE 05:29:19 10° ESE visible
28 Jan ? 07:01:20 10° NW 07:06:34 42° WSW 07:11:20 10° S visible
29 Jan ? 04:32:45 24° N 04:34:17 27° NE 04:38:46 10° E visible
29 Jan ? 06:12:10 14° NW 06:17:03 77° WSW 06:22:09 10° SSE visible
30 Jan ? 03:44:45 19° NE 03:44:45 19° NE 03:47:52 10° ENE visible
30 Jan ? 05:24:11 26° NNW 05:27:19 62° NE 05:32:26 10° SE visible
30 Jan ? 07:04:36 10° NW 07:08:56 24° WSW 07:12:59 10° SSW visible
31 Jan ? 04:36:17 35° NNE 04:37:23 38° NE 04:42:15 10° ESE visible
31 Jan ? 06:15:44 17° NW 06:19:36 45° WSW 06:24:24 10° S visible
01 Feb ? 03:48:30 24° NE 03:48:30 24° NE 03:51:40 10° E visible
01 Feb ? 05:27:57 39° NW 05:30:04 81° WSW 05:35:10 10° SSE visible
01 Feb ? 07:08:40 10° WNW 07:11:09 13° WSW 07:13:32 10° SW visible
02 Feb ? 04:40:19 59° NE 04:40:20 59° NE 04:45:24 10° SE visible
02 Feb ? 06:19:46 19° WNW 06:22:00 26° WSW 06:26:06 10° SSW visible
02 Feb ? 19:08:53 10° SSE 19:09:54 14° SE 19:09:54 14° SE visible
02 Feb ? 20:48:40 10° SW 20:49:24 14° SW 20:49:24 14° SW visible
03 Feb ? 03:52:48 24° E 03:52:48 24° E 03:55:11 10° ESE visible
03 Feb ? 05:32:16 46° WSW 05:32:39 47° WSW 05:37:27 10° S visible
03 Feb ? 18:22:43 10° ESE 18:22:57 10° ESE 18:22:57 10° ESE visible
03 Feb ? 19:59:10 10° SSW 20:02:27 34° S 20:02:27 34° S visible
